Regional Weather Roundup
Issued by NWS Little Rock, AR

Home | Current Version | Previous Version | Graphics & Text | Print | Product List | Glossary On
Versions: 1 2 3 4 5 6 7 8 9 10 11 12 13 14 15 16 17 18 19 20 21 22 23 24 25 26 27
000
ASUS44 KLZK 241605
RWRLZK

WEATHER ROUNDUP FOR ARKANSAS
NATIONAL WEATHER SERVICE LITTLE ROCK AR
1100 AM CDT FRI OCT 24 2014

NOTE: "FAIR" INDICATES FEW OR NO CLOUDS BELOW 12,000 FEET WITH NO
SIGNIFICANT WEATHER AND/OR OBSTRUCTIONS TO VISIBILITY.

ARZ001-003-010-029-241700-
NORTHWEST ARKANSAS

CITY           SKY/WX    TMP DP  RH WIND       PRES   REMARKS
FAYETTEVILLE   MOSUNNY   67  57  70 SW13      30.16F
FORT SMITH     SUNNY     63  54  72 NE3       30.17R
HARRISON       PTSUNNY   69  57  65 W7        30.16S
BENTONVILLE    MOSUNNY   64  54  68 SW9       30.16S
ROGERS         MOSUNNY   66  55  67 SW14      30.16S
SILOAM SPGS    MOSUNNY   66  54  63 SW10      30.17S
HIGHFILL       MOSUNNY   64  56  75 SW10      30.15S
SPRINGDALE     PTSUNNY   66  55  68 SW10      30.18R
$$

ARZ004-005-016-241700-
NORTH CENTRAL ARKANSAS

CITY           SKY/WX    TMP DP  RH WIND       PRES   REMARKS
BATESVILLE     SUNNY     63  54  72 CALM      30.16F
FLIPPIN        SUNNY     61  50  67 CALM      30.17R
MTN HOME       SUNNY     63  53  70 CALM      30.16R
$$

ARZ040-041-241700-
WEST CENTRAL ARKANSAS

CITY           SKY/WX    TMP DP  RH WIND       PRES   REMARKS
MENA           SUNNY     70  54  56 CALM      30.18F
MOUNT IDA      SUNNY     64  54  69 CALM      30.16S
$$

ARZ009-017-025-026-028-241700-
NORTHEAST ARKANSAS

CITY           SKY/WX    TMP DP  RH WIND       PRES   REMARKS
CORNING          N/A     59  52  77 SW3       30.16F
JONESBORO      CLOUDY    61  50  67 W6        30.15F
NEWPORT        MOSUNNY   63  51  64 CALM      30.18S
WALNUT RIDGE   CLOUDY    55  48  76 W3        30.16F
BLYTHEVILLE    MOSUNNY   65  48  54 NW3       30.16F
$$

ARZ022-023-033-042-044-241700-
CENTRAL ARKANSAS

CITY           SKY/WX    TMP DP  RH WIND       PRES   REMARKS
LITTLE ROCK    MOSUNNY   67  49  52 W5        30.17F
N LITTLE ROCK  MOSUNNY   65  53  65 SW5       30.17F
JACKSONVILLE   SUNNY     64  52  65 VRB3      30.17F
SEARCY         SUNNY     64  53  67 VRB3      30.18F
HOT SPRINGS    SUNNY     64  52  64 VRB3      30.19F
RUSSELLVILLE   SUNNY     63  53  70 CALM      30.17F
$$

ARZ036-241700-
EAST ARKANSAS

CITY           SKY/WX    TMP DP  RH WIND       PRES   REMARKS
WEST MEMPHIS   SUNNY     63  48  58 VRB3      30.14F
$$

ARZ050-053-066-070-073-241700-
SOUTHWEST ARKANSAS

CITY           SKY/WX    TMP DP  RH WIND       PRES   REMARKS
ARKADELPHIA    FAIR      65  53  65 VRB3      30.19F
CAMDEN         SUNNY     64  50  59 NE3       30.20R
TEXARKANA      SUNNY     66  51  58 VRB3      30.20S
EL DORADO      SUNNY     65  50  58 N5        30.19F
DE QUEEN       SUNNY     64  54  69 CALM      30.17F
$$

ARZ056-057-069-241700-
SOUTHEAST ARKANSAS

CITY           SKY/WX    TMP DP  RH WIND       PRES   REMARKS
PINE BLUFF     SUNNY     63  49  60 VRB3      30.18S
STUTTGART      SUNNY     64  48  55 W5        30.18F
MONTICELLO     SUNNY     64  48  56 CALM      30.18S

$$





USA.gov is the U.S. government's official web portal to all federal, state and local government web resources and services.